CW9832 Weather Reports


Display with metric or nautical units.
time (UTC)temp
F
wind
direction
speed
MPH
gust
MPH
rain 1hr
in
rain 24hr
in
rain mn
in
humidity
%
barometer
mb
20260502163954 59 55 0.0 0.0 0.00 0.63 0.63 93 1011.4
20260502162939 58 55 0.0 0.0 0.00 0.63 0.63 93 1011.4
20260502160804 58 55 0.0 0.0 0.00 0.62 0.63 93 1011.6
20260502151809 58 52 0.0 0.0 0.00 0.59 0.60 93 1011.6
20260502150831 58 53 0.0 0.0 0.00 0.59 0.60 93 1011.7
20260502130653 57 313 0.0 0.0 0.00 0.52 0.52 93 1011.1
20260502122451 57 309 0.0 0.0 0.10 0.46 0.51 93 1011.1
20260502121417 57 309 0.0 0.0 0.16 0.43 0.48 93 1011.5
20260502120342 57 311 0.0 0.0 0.17 0.42 0.45 92 1011.4
20260502114206 57 11 0.0 7.0 0.00 0.39 0.40 93 1011.0
20260502113204 57 19 0.0 0.0 0.00 0.39 0.40 93 1010.3
20260502112222 57 19 0.0 0.0 0.00 0.39 0.40 92 1010.0
20260502111150 57 19 0.0 0.0 0.00 0.39 0.40 92 1010.2
20260502110130 57 19 0.0 0.0 0.05 0.39 0.40 93 1010.0
20260502105135 57 19 0.0 0.0 0.00 0.38 0.38 93 1010.1
20260502104103 57 19 0.0 0.0 0.00 0.38 0.38 93 1010.0
20260502103100 57 19 0.0 0.0 0.06 0.36 0.38 93 1010.0
20260502102036 57 19 0.0 0.0 0.05 0.36 0.37 93 1009.7
20260502101026 57 19 0.0 0.0 0.08 0.33 0.36 92 1010.1
20260502090808 58 19 0.0 0.0 0.04 0.29 0.31 92 1010.4
20260502070613 61 33 0.0 0.0 0.13 0.09 0.12 92 1010.6
20260502065603 61 33 0.0 0.0 0.06 0.08 0.10 92 1010.8
20260502064547 62 33 0.0 0.0 0.04 0.06 0.08 91 1011.0
20260502063601 62 33 0.0 0.0 0.04 0.06 0.06 91 1010.9
20260502061451 62 33 0.0 0.0 0.06 0.04 0.06 91 1011.2
20260502060511 62 33 0.0 0.0 0.05 0.04 0.05 91 1011.3
20260502055512 62 33 0.0 0.0 0.06 0.03 0.04 91 1011.3
20260502054511 62 33 0.0 0.0 0.05 0.02 0.03 91 1011.1
20260502053535 62 33 0.0 0.0 0.00 0.01 0.02 90 1011.1
20260502050258 62 33 0.0 0.0 0.00 0.01 0.01 90 1011.7
20260502045254 62 33 0.0 0.0 0.00 0.01 0.01 90 1011.8
20260502044249 62 33 0.0 0.0 0.00 0.00 0.01 89 1011.8
20260502043216 62 33 0.0 0.0 0.00 0.00 0.01 89 1011.7
20260502042226 62 33 0.0 0.0 0.00 0.00 0.00 89 1011.5
20260502041244 62 33 0.0 0.0 0.00 0.00 0.00 88 1011.4
20260502040252 62 33 0.0 0.0 0.00 0.00 0.00 88 1011.4
20260502034109 63 33 0.0 0.0 0.00 0.00 0.00 88 1011.5
20260502033123 63 33 0.0 0.0 0.00 0.00 0.00 88 1011.4
20260502032133 63 33 0.0 0.0 0.00 0.00 0.00 87 1011.3
20260502031136 63 33 0.0 0.0 0.00 0.00 0.00 87 1011.5
20260502030156 63 33 0.0 0.0 0.00 0.00 0.00 87 1011.4
20260502024102 63 33 0.0 0.0 0.00 0.00 0.00 86 1011.5
20260502023123 63 33 0.0 0.0 0.00 0.00 0.00 86 1011.5
20260502022136 63 33 0.0 0.0 0.00 0.00 0.00 85 1011.5
20260502021128 64 33 0.0 0.0 0.00 0.00 0.00 85 1011.5
20260502020134 64 33 0.0 0.0 0.00 0.00 0.00 85 1011.5
20260502014040 64 33 0.0 0.0 0.00 0.00 0.00 84 1011.3
20260502011903 64 33 0.0 0.0 0.00 0.00 0.00 83 1011.3
20260502004536 65 33 0.0 0.0 0.00 0.00 0.00 82 1010.9
20260502002424 66 33 0.0 0.0 0.00 0.00 0.00 80 1010.9
20260502001352 66 33 0.0 0.0 0.00 0.00 0.00 79 1010.7
20260502000328 67 33 0.0 0.0 0.00 0.00 0.00 78 1010.5
20260501235319 67 33 0.0 0.0 0.00 0.00 0.00 79 1010.5
20260501233118 68 33 0.0 0.0 0.00 0.00 0.00 76 1010.2
20260501232109 69 33 0.0 0.0 0.00 0.00 0.00 74 1010.0
20260501225932 69 33 0.0 0.0 0.00 0.00 0.00 72 1010.0
20260501224901 69 33 0.0 0.0 0.00 0.00 0.00 68 1010.3
20260501222821 70 33 0.0 0.0 0.00 0.00 0.00 68 1010.2
20260501220703 70 38 0.0 4.0 0.00 0.00 0.00 69 1010.5
20260501215659 69 38 0.0 0.0 0.00 0.00 0.00 71 1011.0
20260501214647 69 38 0.0 0.0 0.00 0.00 0.00 71 1010.9
20260501213646 69 38 0.0 0.0 0.00 0.00 0.00 69 1011.0
20260501212638 69 38 0.0 0.0 0.00 0.00 0.00 70 1011.0
20260501211622 69 38 0.0 0.0 0.00 0.00 0.00 68 1010.9
20260501210623 69 38 0.0 0.0 0.00 0.00 0.00 67 1010.9
20260501205637 69 38 0.0 0.0 0.00 0.00 0.00 68 1010.9
20260501204617 69 38 0.0 0.0 0.00 0.00 0.00 67 1010.9
20260501203634 69 38 0.0 0.0 0.00 0.00 0.00 67 1010.8
20260501202630 69 38 0.0 3.0 0.00 0.00 0.00 68 1010.7
20260501201608 68 33 0.0 1.0 0.00 0.00 0.00 67 1011.0
20260501200602 68 31 0.0 4.0 0.00 0.00 0.00 68 1011.0
20260501195623 68 30 0.0 0.0 0.00 0.00 0.00 69 1011.1
20260501194611 68 33 0.0 3.0 0.00 0.00 0.00 68 1011.2
20260501193551 68 33 0.0 4.0 0.00 0.00 0.00 66 1011.6
20260501190157 67 28 0.0 0.0 0.00 0.00 0.00 67 1012.4
20260501184002 67 39 1.0 7.0 0.00 0.00 0.00 66 1012.4
20260501183001 67 26 1.0 7.0 0.00 0.00 0.00 65 1012.1
20260501181927 67 344 1.0 11.0 0.00 0.00 0.00 66 1012.3
20260501180913 67 51 1.0 11.0 0.00 0.00 0.00 66 1012.2
20260501175909 67 59 2.0 9.0 0.00 0.00 0.00 68 1012.3
20260501174847 66 25 1.0 5.0 0.00 0.00 0.00 67 1012.4
20260501173835 66 349 1.0 8.0 0.00 0.00 0.00 68 1012.3
20260501172826 66 24 1.0 7.0 0.00 0.00 0.00 68 1012.3
20260501171834 66 28 1.0 7.0 0.00 0.00 0.00 68 1012.1